Wind_Speed
48 47 47 46 44 42 42 42 42 43 43 42 41 40 39 39 39 39 40 41 41 41 42 42 43 43 44 44 45 45 46 46 47 47 48 49 50 51 53 54 55 56 57 58 58 59 59 60 61 62 63 64 65 66 66 67 68 69 70 71 72 74 74 74 75 76 77 77 77 78 79 79 80 81 82 82 83 84 85 86 87 88 88 89 89 90 90 91
47 46 46 46 46 45 43 42 42 41 41 41 41 41 41 41 42 40 39 40 41 42 43 43 44 45 45 46 47 47 48 48 48 48 49 50 51 52 53 55 56 57 58 59 60 60 61 62 62 63 64 65 66 67 67 69 70 71 71 72 74 75 75 76 77 77 79 79 79 80 81 81 82 83 84 84 85 85 87 88 90 91 92 93 94 94 94 95
48 46 44 44 45 45 44 43 43 42 41 40 40 40 41 42 43 43 41 40 40 41 43 43 44 45 46 47 48 49 50 50 51 52 52 53 53 54 55 56 57 59 60 60 61 62 62 63 64 65 65 66 67 68 69 70 71 72 73 74 75 77 78 78 79 80 81 82 82 82 83 84 85 86 87 87 88 88 90 92 93 93 94 95 96 96 96 96
49 47 45 43 41 41 41 41 42 43 43 42 41 41 41 41 43 44 44 44 42 42 43 43 43 44 46 47 48 50 51 52 52 54 54 55 55 56 57 58 59 59 60 61 62 63 64 64 65 66 67 67 68 69 70 71 73 73 75 77 78 79 80 79 81 82 83 84 85 85 85 87 88 89 90 92 92 92 93 93 93 94 94 95 96 96 97 97
51 49 48 46 43 40 38 37 37 38 41 43 43 43 43 43 43 44 45 46 47 47 47 47 46 46 47 47 48 49 51 52 52 53 54 55 56 57 57 58 59 59 60 61 63 64 64 65 66 67 67 68 68 70 71 73 74 75 77 79 79 81 81 80 83 84 84 86 87 87 88 89 91 92 93 95 94 94 94 95 95 96 97 97 98 99 99 100
52 51 50 49 48 45 43 41 38 36 36 38 41 43 44 45 46 46 46 47 48 49 49 50 51 51 52 52 52 52 53 54 54 55 55 56 57 58 59 59 60 61 62 63 64 66 67 68 68 69 70 71 72 73 74 76 77 78 80 82 82 84 84 84 86 87 87 88 89 90 91 92 94 94 96 96 96 95 96 97 98 99 100 101 102 103 104 105
50 52 52 52 51 50 48 47 45 42 39 37 38 40 42 44 46 47 49 49 50 51 51 52 53 54 55 56 57 57 58 58 59 59 59 60 60 61 62 63 64 64 65 67 68 69 71 72 73 74 75 76 77 78 79 80 80 81 83 84 86 87 87 88 89 90 91 91 92 93 94 95 96 97 98 98 98 99 100 102 103 104 105 106 107 108 109 110
45 48 51 53 53 53 53 52 50 49 47 44 42 41 41 42 44 46 48 50 51 52 54 54 55 56 57 57 58 59 60 61 62 62 63 63 64 64 65 66 67 68 69 70 71 72 73 74 75 76 77 78 80 80 81 82 82 83 85 85 87 88 89 90 91 92 93 94 95 95 96 97 98 99 100 101 101 102 104 105 106 107 108 109 110 110 111 112
39 43 46 49 52 54 55 55 54 54 53 52 50 48 47 46 46 46 47 48 49 51 53 54 56 57 59 59 60 61 62 63 63 64 65 66 66 67 68 69 69 71 72 72 73 74 75 76 77 78 79 80 81 82 83 84 83 85 86 87 87 88 90 91 92 93 95 96 97 97 98 99 100 100 100 101 103 104 105 106 108 109 110 111 112 113 114 115
35 38 41 44 47 50 52 54 55 56 56 56 56 55 53 52 52 51 51 51 51 51 52 53 55 56 58 59 60 61 63 64 64 65 66 67 67 68 69 70 71 72 73 74 75 75 77 77 79 80 81 82 83 84 85 86 86 86 88 89 90 91 92 93 95 96 98 98 99 100 101 102 102 101 101 103 104 106 107 108 110 111 112 113 114 115 116 117
32 34 36 38 41 43 46 49 51 53 54 55 56 57 57 57 57 57 56 56 56 56 56 56 57 58 58 59 60 61 62 62 63 64 65 65 66 67 68 69 70 72 73 74 75 76 77 78 79 80 81 83 84 85 86 87 88 89 90 92 93 94 95 96 98 100 101 101 102 103 105 105 104 103 104 105 106 107 108 109 110 111 112 113 114 114 115 116
28 30 32 33 35 37 39 41 43 46 48 49 51 53 54 55 56 57 58 58 59 59 60 60 61 62 62 62 63 64 64 65 65 66 67 67 68 69 70 71 72 73 74 75 76 77 78 79 80 81 82 83 84 86 87 88 89 90 92 93 94 95 96 97 99 101 102 102 103 105 106 105 103 103 104 105 105 105 106 107 108 108 109 110 111 112 112 113
25 26 28 29 31 32 34 35 37 38 40 42 44 46 48 50 51 53 54 55 56 56 57 58 59 60 60 61 62 63 64 64 65 66 67 68 69 70 70 71 72 73 74 75 75 76 77 78 80 81 83 84 85 86 87 88 89 90 92 93 94 95 96 96 98 101 101 101 102 104 105 103 101 102 103 103 102 103 103 104 105 106 107 108 109 109 110 111
22 23 24 25 26 28 29 30 31 33 35 36 38 40 41 43 44 46 47 48 49 50 51 52 53 54 55 56 57 58 59 60 61 62 63 64 65 67 68 69 70 71 72 73 74 75 76 78 79 80 82 83 84 85 85 86 88 89 90 92 93 94 95 94 96 99 99 100 101 103 103 100 98 100 101 101 101 102 102 103 104 104 105 106 107 108 109 109
20 20 21 22 23 24 25 27 28 30 31 33 34 35 37 38 39 40 42 43 44 46 47 48 49 50 51 52 54 55 56 57 58 59 60 61 62 64 65 66 67 68 70 71 73 74 76 77 78 79 80 82 82 83 84 85 86 88 89 90 92 93 94 94 95 97 98 99 100 101 101 98 97 99 99 100 100 101 102 102 103 104 104 105 106 107 107 108
19 19 20 21 22 24 25 26 28 29 31 32 33 34 35 36 37 38 39 40 41 43 44 45 46 47 48 49 51 52 53 54 55 56 57 59 60 62 63 64 65 67 68 70 72 73 75 76 77 78 79 81 82 82 84 85 86 87 89 90 91 92 94 94 94 96 97 98 99 100 99 98 97 98 98 99 100 100 101 102 102 103 104 104 105 106 106 107
19 20 21 22 23 24 26 27 28 30 31 32 33 34 35 35 36 37 38 39 40 41 42 43 44 45 46 47 49 50 51 53 54 55 57 58 60 61 63 64 66 67 68 70 72 73 74 75 77 78 79 80 81 83 84 85 86 87 88 90 92 92 94 94 93 95 97 98 98 98 98 97 97 98 98 99 99 100 101 102 102 103 103 104 104 105 105 106
20 21 22 23 24 25 27 28 30 31 32 33 34 34 35 35 36 37 38 39 40 41 42 43 44 45 46 48 49 50 52 53 55 57 58 59 61 62 63 65 66 68 69 70 72 73 74 76 77 78 78 79 81 82 83 84 85 87 87 88 90 91 93 93 92 93 96 96 97 97 97 96 97 98 98 99 99 100 101 101 101 101 101 101 101 102 102 102
19 21 22 23 24 26 27 29 30 32 33 33 34 35 35 36 37 38 39 40 41 42 43 45 46 47 48 50 51 52 54 55 57 58 59 61 62 63 64 66 67 68 69 70 72 73 74 75 76 77 77 78 79 80 81 82 83 85 86 86 88 90 91 91 92 94 95 96 96 96 96 96 97 98 98 99 99 98 98 97 97 96 96 96 96 96 96 96
18 19 21 22 24 25 27 29 30 31 33 33 34 35 36 37 38 39 41 42 43 44 45 47 48 49 51 52 53 54 56 57 59 60 61 62 63 65 66 67 68 69 70 70 71 73 73 74 75 76 77 78 78 80 81 82 83 84 86 87 88 90 90 90 92 94 95 96 96 95 96 96 96 95 95 94 93 91 90 89 89 89 89 89 89 90 90 91
17 18 19 20 22 24 25 27 28 30 31 32 33 35 36 37 39 40 42 43 44 45 47 48 49 51 52 53 55 56 57 59 60 62 63 64 65 66 67 68 68 69 70 70 71 72 73 73 75 76 78 79 79 81 81 83 84 85 86 87 88 89 89 89 90 91 92 93 92 91 91 90 89 88 86 85 84 84 83 83 84 84 84 85 85 86 86 87
17 18 19 20 21 22 24 25 26 28 29 30 32 34 36 37 39 40 42 44 45 46 47 48 50 51 53 54 56 57 58 60 61 63 64 64 65 66 67 68 69 69 70 71 72 73 74 75 76 78 79 80 81 81 82 83 84 84 85 85 85 84 84 84 84 85 85 85 84 83 84 83 82 82 81 81 81 82 82 82 83 83 83 84 85 85 86 87
18 18 19 20 21 22 23 25 26 28 29 30 32 34 35 36 38 39 41 43 44 45 46 48 50 52 53 55 56 58 59 61 62 63 64 65 66 67 68 69 70 71 72 73 73 75 76 77 78 79 79 80 80 81 81 81 81 81 81 82 81 81 81 81 80 81 82 81 80 81 82 81 80 81 81 82 83 83 83 84 84 85 85 86 86 87 88 88
18 19 20 21 22 23 24 25 27 28 29 31 32 33 34 35 36 38 40 42 43 45 47 49 50 52 54 55 57 58 60 61 63 64 65 66 67 69 70 71 72 72 73 74 75 76 76 77 77 78 78 78 79 78 78 78 78 78 78 80 80 79 80 80 80 80 81 80 80 82 83 81 80 82 83 83 84 85 85 86 86 87 87 88 89 89 90 90
20 20 20 22 23 24 25 26 28 29 30 32 33 34 35 36 38 40 42 44 45 47 49 51 53 54 55 57 58 59 61 63 64 65 66 67 68 69 70 71 72 72 73 74 74 75 75 75 76 76 76 76 76 75 75 76 77 77 77 79 80 80 79 80 81 81 81 80 80 84 85 83 81 82 84 85 86 87 88 88 89 89 90 91 91 91 92 92
23 23 23 25 26 27 27 28 30 31 32 34 35 36 38 40 41 43 45 47 48 50 52 53 55 56 58 59 60 61 63 64 65 66 67 67 68 68 69 70 70 71 71 72 73 73 73 73 73 73 73 73 73 74 75 75 76 77 77 78 79 80 80 81 81 83 83 81 81 83 86 86 84 81 82 85 88 88 89 90 91 91 92 92 93 93 94 94
26 27 27 28 28 29 30 31 33 34 35 37 38 39 41 42 44 46 48 49 51 53 54 55 56 58 59 60 61 62 62 63 64 64 65 65 65 65 66 67 68 69 69 70 70 70 70 70 71 71 72 72 73 74 75 75 76 77 78 78 79 80 81 81 82 83 84 83 81 82 85 88 87 81 80 83 87 89 90 90 91 92 92 92 93 93 94 94
28 29 30 30 31 31 33 34 35 37 38 40 41 42 43 45 47 48 50 51 53 54 55 56 57 58 59 60 60 60 60 60 61 61 62 62 62 63 64 65 66 67 67 68 68 69 69 70 70 71 72 73 74 74 75 76 76 77 78 78 78 79 79 80 80 81 82 82 81 81 83 86 87 82 79 80 84 87 88 89 90 90 90 91 91 92 92 93
30 31 31 32 33 34 35 36 38 39 41 42 43 45 46 47 49 50 51 52 53 55 55 56 56 57 57 57 57 57 58 58 58 59 60 61 61 61 62 63 64 65 65 67 68 69 69 70 71 72 72 73 73 73 74 74 74 74 75 75 75 76 76 77 77 78 80 79 79 80 81 83 84 81 77 79 82 85 86 87 88 88 88 89 89 90 91 91
31 32 33 34 35 36 38 39 40 42 43 44 45 46 47 48 50 51 52 53 53 54 54 54 54 54 55 55 56 56 56 57 57 58 59 60 60 61 62 63 64 65 66 67 68 68 68 68 68 69 69 69 69 69 70 70 70 70 71 72 72 73 73 74 75 76 78 77 76 78 80 82 83 80 76 79 83 83 84 85 86 87 88 88 89 90 90 91
33 34 35 36 37 39 40 41 43 44 45 46 47 47 48 49 50 51 52 52 52 52 52 52 53 53 53 54 54 55 55 56 56 57 58 59 60 61 62 63 63 64 64 64 64 64 64 63 63 63 64 64 65 65 66 67 67 68 69 69 70 71 71 72 73 75 77 77 76 76 79 81 83 80 78 80 83 84 84 84 86 87 88 89 89 90 91 91
34 35 36 38 39 41 42 43 44 45 46 47 48 49 49 50 50 50 50 51 51 51 51 51 51 52 52 53 53 54 54 55 56 57 57 57 58 58 58 58 58 59 59 60 61 61 61 61 61 61 62 63 63 64 65 66 67 68 68 70 70 71 72 72 73 75 76 78 77 76 80 82 83 82 81 82 83 85 86 86 87 88 89 90 91 92 92 93
35 37 38 40 41 42 43 45 45 46 47 48 48 48 48 48 48 48 49 49 49 50 50 50 51 51 52 52 53 53 53 54 54 54 53 53 53 53 53 54 54 55 56 57 59 60 60 61 61 61 62 63 63 64 65 66 67 68 69 70 71 72 73 73 74 76 77 79 78 78 80 83 84 84 85 85 86 87 88 88 89 90 91 92 93 94 95 96
37 38 40 41 42 43 44 45 46 46 47 47 47 46 46 46 46 46 47 47 48 48 49 49 50 50 50 50 50 50 50 50 49 49 49 49 50 50 51 51 52 53 54 55 57 58 59 60 61 62 63 64 65 66 67 68 69 70 71 73 74 75 76 76 77 78 80 81 81 81 83 85 87 87 88 89 90 90 91 91 92 93 94 95 96 97 98 99
38 39 41 42 43 44 45 46 46 45 45 45 44 44 44 45 45 45 46 46 47 47 47 47 47 46 46 46 46 46 46 46 46 47 47 47 48 49 50 51 52 53 54 56 57 59 60 61 63 64 65 66 67 69 70 71 72 73 74 76 77 79 80 80 81 82 83 84 84 85 86 88 89 90 91 93 94 94 95 95 96 97 98 99 100 101 102 102
39 40 42 43 44 44 44 44 44 43 43 43 43 43 44 44 44 44 44 44 44 43 43 43 42 42 42 42 43 43 43 44 44 45 46 47 48 49 50 52 53 55 57 58 60 61 63 64 65 66 67 68 69 70 72 73 74 75 76 77 79 80 82 82 83 84 85 86 86 87 88 89 89 90 92 94 95 95 96 97 98 99 100 101 102 103 103 104
40 42 43 43 43 43 43 42 42 42 42 42 42 42 42 42 42 41 41 41 40 40 40 40 39 40 40 40 41 42 42 43 44 45 47 48 49 51 52 54 55 56 58 59 61 62 63 65 66 67 68 68 69 70 71 72 74 74 76 77 78 79 80 82 82 82 83 84 85 86 87 87 87 88 90 92 93 93 94 95 96 97 98 99 100 101 102 103
41 42 42 42 42 41 41 41 40 40 40 40 40 39 39 38 38 38 38 38 38 38 38 38 38 39 39 40 41 42 43 44 46 47 48 50 51 52 53 55 56 56 58 59 60 61 62 63 64 65 65 66 67 68 68 70 71 71 72 74 75 75 77 78 79 79 80 80 81 82 84 84 84 85 87 88 89 90 91 92 93 94 95 96 97 99 100 101
41 41 40 40 39 39 39 39 39 39 38 37 37 36 36 36 35 35 35 35 36 36 36 37 38 38 39 41 42 43 45 46 47 48 49 50 51 51 52 53 54 54 55 56 57 58 58 59 60 61 61 62 63 64 65 66 67 68 69 70 71 72 73 74 75 76 76 76 76 76 78 80 80 81 83 84 85 87 88 89 90 91 92 93 95 96 97 98
38 38 37 37 37 37 37 37 37 36 35 35 34 34 34 34 34 34 34 34 34 35 35 36 38 39 40 41 43 44 45 46 47 48 48 48 49 49 50 50 51 51 52 52 53 54 54 55 56 57 57 58 59 61 62 63 63 65 66 67 69 70 71 71 72 73 74 74 74 73 73 74 76 78 79 80 81 82 84 85 86 88 89 91 92 94 95 96
36 35 36 36 36 35 35 34 34 33 33 32 32 32 32 32 32 32 33 33 34 34 35 36 38 39 40 41 43 44 45 45 46 47 47 48 48 48 49 49 49 49 50 50 50 51 51 52 52 53 54 55 56 57 58 60 60 61 62 63 64 66 67 68 69 70 71 72 72 72 71 70 71 75 77 77 78 79 80 82 83 84 86 87 89 91 92 93
35 35 35 34 34 33 33 32 31 31 31 31 31 31 31 31 32 32 32 33 33 34 35 36 38 39 40 42 43 44 45 46 47 47 47 47 47 47 47 47 47 48 48 48 48 48 49 49 50 50 51 52 53 54 55 57 58 59 60 61 62 63 64 65 66 66 67 68 69 69 69 66 67 70 73 73 74 75 76 78 79 81 82 83 85 86 88 89
34 33 33 32 32 31 31 30 30 31 31 31 31 31 31 31 31 31 31 32 32 34 35 37 39 40 42 43 45 46 47 48 48 48 48 47 47 46 46 46 46 45 45 45 45 46 46 47 47 48 50 51 53 54 55 57 58 59 61 62 63 64 65 66 67 67 67 68 69 69 69 67 66 68 70 71 71 72 73 74 75 77 78 79 81 83 84 86
32 31 30 30 30 30 30 31 31 31 31 31 30 30 30 30 30 30 30 32 33 35 37 38 40 42 44 46 47 48 49 49 49 48 47 47 46 45 44 44 44 44 44 44 44 45 46 47 48 49 50 51 52 53 54 55 57 58 60 61 63 64 65 66 68 68 69 69 70 70 70 69 68 68 69 70 70 71 71 72 73 74 75 77 78 79 81 82
29 29 28 29 30 30 31 31 31 30 30 29 29 28 28 28 29 30 31 33 34 36 38 40 42 44 46 47 48 48 49 48 48 48 47 47 46 46 46 45 45 46 46 46 46 47 48 48 49 49 49 50 50 51 52 53 54 56 58 59 61 61 62 64 65 67 67 67 68 68 67 68 68 66 67 69 69 70 71 71 72 72 73 75 76 77 78 79
28 28 29 30 30 30 30 29 29 29 28 28 27 27 28 29 30 31 33 34 36 38 40 42 44 45 46 46 47 47 48 48 48 48 48 47 47 47 47 47 46 46 46 46 46 46 46 46 47 47 48 48 49 51 51 52 53 54 55 57 59 59 59 60 63 65 64 64 65 66 65 65 66 65 64 65 66 67 68 69 69 70 71 72 73 74 75 76
28 29 29 29 29 28 28 28 28 28 27 27 27 28 29 30 31 33 34 36 38 40 42 43 44 44 45 45 46 47 47 47 47 47 47 46 46 46 45 45 44 44 44 43 43 43 42 43 44 44 45 46 47 48 49 50 51 52 54 55 57 57 57 58 60 62 63 62 62 63 63 62 63 63 62 62 63 63 64 65 66 67 68 69 70 70 71 72
27 28 27 27 27 27 28 28 28 28 27 28 29 30 31 32 33 35 36 38 39 41 42 43 43 44 45 45 46 47 47 47 47 47 46 46 45 45 44 44 43 43 43 42 42 42 42 42 42 43 44 44 45 46 47 48 49 50 52 54 56 57 55 55 57 59 61 61 60 60 61 61 62 62 62 61 62 62 63 64 64 65 66 67 68 69 70 70
26 26 26 26 27 28 28 29 28 28 29 30 31 31 32 34 35 37 38 39 40 41 42 42 43 44 45 46 47 47 47 48 48 47 47 47 46 46 45 45 45 44 44 44 43 43 44 44 43 44 45 45 46 46 47 48 48 50 52 54 56 57 56 55 56 56 57 59 60 59 60 60 61 62 62 62 62 62 63 64 65 65 66 67 69 70 70 71
25 25 26 27 28 29 29 29 29 30 30 31 32 33 34 35 37 38 39 39 40 41 41 42 43 45 45 47 47 48 49 49 49 49 49 49 49 48 48 47 47 47 47 47 47 47 47 47 47 46 46 47 48 48 49 49 50 51 53 55 57 59 59 56 56 56 56 57 58 58 59 59 59 60 61 62 62 62 63 64 65 66 67 68 70 71 71 72
25 25 27 29 30 30 30 30 31 31 32 32 33 34 35 37 38 38 39 39 40 41 42 43 44 45 46 47 48 49 50 51 51 51 51 51 51 51 50 50 50 50 51 51 51 51 51 51 51 50 50 49 49 50 50 51 51 52 54 55 58 61 62 60 59 59 59 58 59 58 58 58 58 58 59 60 61 62 62 63 64 65 66 67 68 69 71 71
25 27 29 30 31 31 31 32 32 32 33 33 34 36 37 37 38 38 39 40 41 42 43 44 45 46 46 48 49 51 52 53 53 53 53 53 53 53 53 53 53 53 53 53 53 53 53 53 53 53 53 53 53 53 53 53 54 54 55 57 60 63 66 64 62 62 62 60 60 59 59 59 58 58 59 60 60 61 61 63 63 63 64 65 66 67 68 70
Wind_Direction
230 232 232 232 233 234 236 238 241 242 244 245 245 245 247 250 252 252 252 252 251 250 250 250 250 251 251 251 251 251 251 251 251 252 252 253 253 253 254 255 255 256 256 257 258 258 259 259 260 260 261 261 261 261 261 262 262 262 263 263 264 264 265 265 265 266 266 266 266 266 266 266 267 267 266 267 267 267 268 268 268 268 269 269 269 269 269 269
231 233 234 234 235 236 237 238 240 242 244 246 247 247 247 247 249 252 254 256 256 256 255 254 253 253 253 254 254 254 254 253 253 254 254 255 255 256 256 256 256 257 257 258 258 259 259 260 260 261 261 262 262 262 263 263 263 263 263 264 264 265 265 265 266 266 267 267 266 266 267 267 267 267 267 267 267 268 269 269 269 269 270 270 270 270 270 270
231 233 235 236 238 239 240 240 241 242 244 246 247 248 248 248 247 248 250 252 255 258 259 260 259 259 258 258 258 258 257 257 257 258 258 258 259 259 258 258 258 258 258 258 259 259 259 260 260 260 261 261 261 262 262 263 263 263 263 263 264 265 265 265 266 266 266 267 267 266 267 267 267 267 268 268 269 270 271 271 271 271 271 271 271 271 271 271
232 233 235 236 238 240 242 243 243 244 245 245 246 247 248 249 249 248 248 249 250 252 255 258 260 261 262 263 263 263 262 262 262 262 262 263 263 262 262 261 261 261 260 260 261 261 261 261 262 262 262 262 263 264 264 264 265 265 265 265 266 266 267 267 268 267 267 268 268 268 268 268 269 269 270 270 271 272 273 273 273 273 273 273 272 272 272 273
234 235 236 236 236 237 239 240 242 246 247 247 247 247 248 249 250 251 250 250 250 250 251 253 254 255 257 259 261 263 264 264 264 265 265 265 265 265 264 264 264 264 264 264 264 264 264 265 264 264 264 264 265 266 267 267 268 268 269 269 270 270 270 270 270 270 270 270 270 270 270 270 271 271 272 272 273 273 274 274 274 274 274 274 274 274 274 274
236 237 238 238 238 238 238 238 239 241 245 248 248 248 249 250 251 252 253 253 253 253 253 253 254 254 255 256 257 259 261 262 263 263 263 263 263 263 264 264 264 264 264 264 264 265 265 265 265 265 265 265 265 266 266 267 267 268 268 269 270 270 270 271 271 271 271 271 271 271 271 271 271 272 272 273 273 274 274 274 274 274 274 274 274 275 275 275
239 239 240 241 241 241 241 241 241 240 240 242 244 246 248 250 251 252 253 254 254 255 256 256 256 256 257 258 258 259 261 262 263 263 263 263 263 263 263 264 264 264 264 264 264 265 265 266 266 266 266 267 267 267 268 268 268 268 267 268 268 269 269 270 270 270 270 270 270 270 270 270 270 271 271 272 273 273 273 273 273 273 273 273 273 274 274 274
241 241 242 243 243 244 244 245 245 244 243 242 242 243 244 246 248 249 251 252 254 255 257 257 258 258 259 260 260 260 261 263 264 264 265 265 266 266 266 266 266 266 266 267 266 267 267 267 268 268 268 268 269 269 269 270 270 270 270 269 270 270 270 270 270 270 270 270 270 270 270 270 270 270 271 272 272 272 272 272 272 272 272 273 273 273 273 273
242 243 243 244 245 246 247 247 248 248 248 248 247 247 246 246 246 247 249 250 252 253 255 256 257 258 260 261 262 262 263 264 264 265 266 266 267 267 267 267 268 268 268 268 268 268 268 268 268 268 268 268 268 268 268 269 269 269 269 269 269 269 269 269 269 269 269 269 269 269 269 269 270 270 271 271 272 272 272 272 272 272 273 273 273 273 273 273
243 244 244 245 246 247 248 249 250 251 251 252 253 253 253 252 251 251 251 251 252 252 253 254 255 256 257 259 260 261 262 262 263 264 264 265 266 266 266 267 267 267 267 267 267 267 267 267 267 267 267 267 267 267 267 267 267 267 268 268 268 268 268 269 269 269 269 269 269 270 270 270 270 271 271 271 272 272 272 273 273 273 273 273 274 274 274 274
244 245 246 247 247 248 249 250 251 252 253 255 256 257 257 258 258 258 258 257 257 257 257 257 258 258 259 259 259 260 260 261 262 262 263 263 264 264 265 265 265 266 266 266 266 267 267 267 267 267 267 267 267 267 267 268 268 268 268 268 269 269 269 270 270 270 270 270 271 271 271 271 272 272 272 272 272 272 273 273 274 274 274 274 275 275 275 275
247 247 248 249 249 250 251 251 252 253 254 255 256 257 258 259 260 261 261 262 262 262 262 262 263 263 263 264 264 264 264 264 264 265 265 265 265 265 265 266 266 266 266 267 267 268 268 268 268 268 268 268 268 268 268 269 269 269 269 269 269 270 270 271 271 271 271 272 272 272 272 273 273 274 274 273 274 274 274 275 275 275 275 275 276 276 276 276
251 251 251 251 252 252 252 253 254 255 255 256 256 257 258 259 260 261 262 263 264 264 265 265 265 265 266 266 266 266 266 266 266 266 266 266 266 266 266 267 267 267 267 267 267 268 268 268 268 268 268 268 269 269 269 270 270 270 270 270 270 271 271 272 272 273 273 273 274 274 274 275 276 276 276 276 276 276 276 276 276 276 276 276 276 276 276 276
258 258 258 258 258 258 258 258 258 258 258 259 259 260 261 262 263 263 264 264 265 265 265 266 266 266 266 266 266 266 267 267 267 267 267 266 267 267 267 267 267 267 267 267 267 268 268 268 268 269 269 270 270 271 271 271 272 272 272 272 273 273 273 273 274 274 275 275 275 276 276 277 277 277 277 277 277 276 276 276 276 276 276 276 276 276 276 276
266 266 266 266 266 265 265 264 264 264 264 264 265 265 266 266 266 267 267 267 267 266 266 266 267 267 267 267 267 267 267 267 268 267 268 268 268 268 268 268 268 268 268 269 269 269 269 270 270 271 271 272 272 273 273 273 273 274 274 274 274 275 275 275 275 276 276 276 277 277 277 278 278 277 277 277 277 277 276 276 276 276 275 275 275 275 275 275
269 269 269 269 269 269 268 268 268 268 269 269 270 271 271 271 271 270 270 270 269 269 269 268 268 268 268 268 268 269 269 269 269 269 269 269 269 269 269 270 270 270 270 270 271 271 272 272 272 273 273 274 274 274 274 274 274 275 275 275 275 275 276 276 276 276 277 277 277 277 278 278 278 278 277 277 277 277 276 276 276 275 275 275 275 274 274 274
268 268 268 268 268 269 269 270 270 271 272 273 274 274 274 274 273 273 272 271 271 270 270 270 270 269 269 269 270 270 270 270 270 270 270 270 271 271 272 272 272 272 273 273 273 273 274 274 274 274 275 275 275 275 275 275 275 275 275 276 276 276 276 276 277 277 277 277 277 278 278 278 278 278 277 277 277 276 276 276 276 275 275 275 275 274 274 273
269 268 268 268 268 269 269 270 271 272 273 273 274 274 274 274 273 273 273 272 272 272 272 272 271 271 271 271 271 271 271 271 271 271 272 272 273 273 274 274 274 274 274 275 275 275 275 276 276 276 276 276 276 276 276 276 276 276 276 276 277 277 277 278 278 277 277 277 277 278 278 278 278 278 278 278 277 277 277 277 276 276 276 275 275 274 274 273
273 273 272 272 271 270 270 271 271 272 273 274 274 274 273 273 273 274 273 273 273 273 273 273 273 273 272 272 272 272 272 272 272 273 273 274 274 274 274 275 275 276 276 276 277 277 277 277 278 278 278 278 278 278 278 278 278 278 278 277 277 277 278 278 278 278 278 278 278 278 278 278 278 278 278 278 278 278 278 277 277 276 276 275 275 274 274 273
279 277 276 275 274 273 272 273 273 273 274 275 275 275 275 275 274 274 274 274 274 273 274 274 274 274 274 273 274 273 274 274 274 274 275 275 275 275 276 276 277 277 277 277 278 278 279 279 279 279 280 279 279 279 279 279 279 278 278 278 278 278 278 278 278 278 278 278 278 278 279 279 279 279 279 278 278 278 277 277 276 276 275 275 275 274 274 273
284 282 280 279 279 278 278 277 277 278 278 279 279 279 278 278 277 277 276 276 276 276 276 276 276 276 276 276 276 276 276 276 276 276 276 276 277 277 278 278 278 278 279 279 279 280 280 281 281 281 281 280 280 280 279 279 279 279 279 279 279 279 279 279 279 279 278 278 278 279 278 278 278 278 278 278 278 277 277 276 276 276 275 275 274 274 274 273
290 288 286 285 285 284 284 284 284 284 283 283 283 283 283 282 281 280 280 279 279 279 278 278 278 277 277 277 277 277 277 277 277 278 278 278 279 279 279 279 280 280 281 281 281 281 281 281 281 281 281 281 280 280 280 279 279 279 279 279 279 279 279 279 279 279 278 278 279 279 278 278 278 278 278 278 277 277 277 276 276 276 275 275 275 274 274 274
296 294 292 291 290 290 289 288 287 286 285 284 284 285 285 285 284 282 281 280 280 279 279 278 277 277 277 277 278 278 278 278 279 279 279 280 280 281 281 281 281 281 282 282 282 282 281 281 281 281 281 281 281 280 280 280 279 279 279 279 279 279 279 279 279 279 279 279 279 279 278 278 278 279 278 278 278 277 277 277 277 276 276 275 275 275 274 274
301 297 294 292 292 291 290 288 287 285 284 283 284 284 285 284 283 282 280 279 279 278 278 277 277 277 278 278 279 279 279 279 279 280 281 281 281 281 281 282 282 282 282 281 281 281 281 281 281 281 281 281 281 281 281 280 280 280 280 280 280 280 280 280 279 279 279 279 280 279 278 278 279 279 278 278 278 278 278 277 277 277 276 276 275 275 275 275
302 298 295 293 292 290 289 288 287 285 284 284 284 284 283 282 281 280 279 278 278 278 278 278 278 279 279 280 280 280 280 280 280 281 281 281 281 281 281 282 282 281 281 281 281 281 281 281 282 281 282 281 281 281 281 281 281 281 281 281 281 281 281 281 280 280 280 280 280 280 279 279 278 278 279 279 279 278 278 278 277 277 277 276 276 276 276 276
300 298 296 294 294 293 291 289 288 286 286 286 285 284 282 281 280 279 279 279 278 278 278 279 279 280 280 281 281 281 281 281 282 282 282 282 282 282 282 282 282 282 282 282 282 282 282 282 282 282 282 282 282 282 282 281 281 281 281 281 281 282 281 281 281 281 281 280 280 280 280 280 278 278 279 279 279 279 278 278 277 277 277 277 277 277 277 277
297 297 295 294 294 294 293 292 290 289 288 287 286 284 283 281 281 280 280 280 280 280 280 281 282 282 283 283 283 284 284 284 284 284 284 284 284 284 284 284 284 284 284 284 284 284 284 284 284 283 283 283 283 283 282 282 282 282 282 282 281 281 281 281 281 281 281 281 280 280 280 280 279 278 278 278 279 279 278 278 277 277 277 277 277 277 277 277
294 294 294 294 294 294 293 292 291 291 290 289 287 286 285 284 284 283 283 283 283 283 284 285 285 286 287 287 287 287 287 287 287 287 287 287 286 286 286 286 286 286 286 286 286 286 286 285 285 285 285 284 284 284 283 283 283 282 282 282 282 282 282 282 282 282 282 282 281 281 280 280 280 280 279 279 278 278 278 278 278 278 278 278 278 278 277 277
293 293 294 294 294 294 294 293 292 291 291 290 289 289 288 288 288 288 288 287 287 288 289 289 289 290 290 290 290 290 290 290 290 290 290 290 289 289 289 288 288 288 288 288 287 287 287 287 287 287 286 286 286 285 285 285 285 284 284 284 284 284 283 284 283 283 283 283 283 283 282 281 281 281 281 280 279 278 278 279 279 279 279 279 278 278 278 278
293 293 294 295 295 295 295 294 293 292 292 292 292 292 292 292 292 292 292 292 292 292 293 293 294 294 293 293 293 293 293 293 293 293 293 293 292 292 292 291 291 291 290 290 289 289 289 289 288 288 288 288 287 287 287 287 286 286 286 286 285 285 285 285 285 284 284 284 283 283 283 283 282 283 282 281 280 279 279 280 280 280 279 279 279 279 279 279
293 294 295 296 296 296 295 295 294 295 295 296 296 296 295 295 295 295 295 296 296 297 297 297 296 296 296 296 296 296 296 296 295 295 294 294 294 293 293 292 292 291 290 290 289 289 289 288 288 288 288 287 287 287 287 287 287 286 286 286 285 285 285 285 285 284 284 284 284 283 283 283 283 283 282 281 280 280 280 280 280 280 279 279 279 279 279 278
294 295 296 296 296 296 296 297 298 298 299 299 299 299 299 299 299 299 299 300 300 299 299 299 299 299 299 298 298 298 298 298 297 297 296 295 295 294 294 293 293 293 292 292 291 291 290 290 290 289 289 289 289 288 288 287 287 287 286 286 285 285 285 284 284 283 283 283 283 283 283 282 282 282 281 280 280 280 280 279 279 279 279 279 279 278 278 278
295 296 297 297 297 298 299 300 301 301 302 302 302 302 302 302 302 302 302 302 301 301 302 301 301 301 301 301 301 300 300 299 299 298 297 297 296 296 295 295 295 295 294 294 294 294 293 293 292 292 291 291 290 289 289 288 288 287 287 286 286 285 284 284 283 283 283 283 283 282 282 282 282 282 282 281 280 279 279 279 279 279 279 279 278 278 278 278
297 297 298 299 300 302 303 303 304 304 304 304 304 304 304 304 304 304 303 303 303 304 304 304 304 304 304 303 303 302 302 301 301 300 300 299 299 298 298 297 297 296 295 295 294 294 294 293 292 292 291 291 290 290 289 288 288 287 287 286 286 285 284 284 283 283 283 283 283 283 282 282 282 282 282 282 281 280 280 279 279 279 278 278 278 278 278 278
298 300 302 304 305 306 306 306 306 307 307 307 306 306 306 306 306 306 307 306 306 307 307 307 307 306 306 306 305 305 304 304 304 304 303 303 302 302 301 300 299 298 297 296 295 294 293 292 292 291 291 291 290 290 289 289 288 287 287 287 286 286 286 285 284 284 283 283 283 282 282 282 282 282 282 281 281 281 280 280 280 279 279 279 278 278 278 278
303 305 306 307 308 308 309 309 309 309 309 309 309 309 310 310 310 310 310 311 311 311 311 310 310 310 309 309 308 308 308 308 308 308 307 306 305 304 302 301 300 299 298 297 296 295 294 293 292 292 291 291 290 290 289 289 289 288 288 287 287 286 286 286 285 285 285 284 284 283 283 282 282 282 282 281 281 281 281 281 280 280 280 280 279 279 279 278
307 309 309 310 311 311 312 312 312 312 312 312 313 313 314 314 314 315 315 315 315 314 314 314 314 313 313 313 313 312 312 312 311 310 308 307 306 304 303 302 300 299 298 297 296 295 295 294 293 293 293 292 291 291 290 290 290 289 289 288 288 288 288 287 287 287 286 286 286 286 285 285 284 284 284 283 283 283 282 282 282 281 281 281 280 280 280 279
310 311 312 313 314 314 314 314 314 315 316 317 317 317 318 318 318 318 318 318 318 318 318 318 318 318 318 317 317 316 316 314 313 311 310 309 307 306 305 303 302 300 299 298 298 297 296 296 295 295 294 294 293 293 292 292 291 291 290 290 290 290 289 289 289 289 288 288 288 288 288 288 287 286 286 285 285 284 284 284 283 283 282 282 282 281 281 280
313 314 315 315 315 316 316 317 318 319 320 321 321 321 322 321 321 321 321 321 321 321 321 322 322 322 322 321 320 319 318 316 315 314 312 311 310 308 307 305 304 303 302 301 300 299 299 298 298 297 297 297 296 296 295 295 294 294 294 293 293 293 292 292 292 291 291 290 289 289 289 289 289 288 287 286 286 285 285 285 284 284 283 283 282 282 282 282
316 316 316 317 318 320 321 322 323 324 324 324 324 324 324 324 324 324 324 325 325 325 326 326 326 326 325 324 322 321 320 319 318 317 316 315 314 312 311 310 308 307 306 305 305 304 304 303 302 302 301 301 300 300 300 299 299 298 298 298 297 297 296 296 296 295 295 294 294 292 291 291 291 289 288 287 287 286 286 285 285 284 284 284 283 283 282 282
318 319 320 322 324 325 326 326 326 326 326 326 326 327 327 328 328 328 328 329 330 330 330 330 329 328 327 326 325 325 324 324 324 323 322 321 320 319 317 316 314 313 312 311 310 309 308 307 307 306 306 305 304 304 303 302 301 301 300 300 300 300 300 299 299 299 298 297 297 296 294 294 293 291 290 290 289 288 287 287 286 285 285 284 284 284 283 283
322 324 325 327 328 329 329 329 328 328 329 330 331 331 331 332 332 332 333 334 334 334 334 333 333 332 332 331 332 332 332 331 331 330 328 327 325 324 322 321 320 318 317 316 315 314 313 313 312 311 311 310 309 308 308 307 307 307 306 306 305 305 304 303 303 302 302 301 300 299 298 297 295 294 293 292 291 290 290 289 288 287 287 286 286 285 285 285
326 328 330 331 331 331 331 331 332 333 334 335 335 335 335 335 336 337 338 338 338 338 338 338 338 338 338 339 339 338 338 337 335 334 333 332 330 329 327 326 324 323 322 321 320 319 319 318 319 318 318 318 318 317 316 315 314 314 313 312 312 311 310 310 309 308 308 307 306 305 304 303 301 299 298 297 296 294 293 292 291 291 290 289 288 288 287 287
330 332 332 332 333 334 335 337 337 338 338 337 337 338 339 340 341 342 343 344 344 344 344 344 344 345 345 345 344 343 342 341 340 339 337 336 334 333 331 330 329 328 327 327 326 326 326 326 326 326 325 324 322 321 319 318 317 316 316 315 314 314 313 312 312 311 311 310 309 308 307 306 305 303 302 301 299 298 297 296 294 293 293 292 291 290 290 289
333 333 334 336 338 340 340 340 339 338 339 340 341 342 344 345 347 347 349 349 349 350 350 350 351 351 350 349 348 346 345 344 343 341 340 339 339 338 338 337 336 335 335 334 334 333 332 331 330 328 326 324 323 321 320 319 319 318 317 317 316 315 314 313 313 312 311 310 309 308 308 307 306 305 304 302 302 301 299 298 297 297 296 295 294 294 293 293
335 338 341 342 342 341 341 340 340 342 343 345 346 348 350 351 352 353 354 354 354 355 355 355 355 354 353 351 350 349 348 347 346 345 345 345 344 344 344 343 342 341 340 339 337 336 335 333 330 328 327 326 325 324 323 322 322 321 320 319 318 318 318 317 315 314 313 313 312 311 310 309 308 307 306 304 303 302 301 300 299 299 298 297 297 296 296 295
341 344 345 343 342 341 342 344 345 347 349 350 352 354 355 356 356 357 358 358 358 358 358 357 356 355 354 353 352 352 351 351 350 350 349 349 349 348 347 346 345 344 343 341 340 338 336 333 331 331 330 329 328 327 326 326 325 325 324 323 322 322 323 323 321 319 318 317 316 315 314 312 310 309 308 306 304 303 302 302 301 301 300 300 300 299 298 298
346 346 344 343 344 346 348 350 351 352 354 357 358 359 359 359 359 360 0 0 360 359 358 357 355 354 354 354 354 354 354 353 353 353 353 353 352 352 351 350 350 349 347 346 344 342 339 338 337 336 335 334 332 332 331 331 331 330 329 328 327 327 328 329 327 326 323 321 320 319 318 316 314 313 311 310 309 308 307 307 306 305 305 305 304 303 303 302
347 345 345 347 350 352 354 355 356 357 360 1 1 0 0 1 1 1 1 0 360 359 357 356 355 354 354 355 356 356 356 356 356 356 355 355 355 355 354 354 354 353 351 350 348 347 345 344 343 342 340 340 339 337 336 336 336 335 335 334 333 331 333 335 333 331 328 326 324 323 322 321 319 318 316 315 314 313 312 311 311 310 310 310 309 308 308 307
347 348 350 354 356 357 358 359 359 1 4 3 2 1 1 1 1 1 1 360 359 357 356 355 355 355 355 356 357 357 357 358 358 358 358 357 357 357 356 356 356 355 355 354 353 352 350 348 348 347 346 345 344 343 341 340 340 341 340 340 338 337 337 339 337 334 333 332 330 328 327 325 324 322 320 318 317 316 315 314 314 314 314 314 313 312 311 309
350 353 357 360 0 0 1 2 3 4 5 3 1 1 2 2 1 0 359 358 357 356 356 356 356 356 357 357 358 358 359 359 359 360 360 359 359 358 358 358 358 358 357 357 356 355 354 352 351 350 349 348 347 346 345 344 344 345 344 344 344 342 341 341 341 340 339 338 335 333 330 328 326 324 322 320 319 319 318 317 317 316 316 314 313 312 311 310
355 359 2 2 2 3 3 4 4 5 4 2 1 1 1 0 359 358 357 356 356 355 356 356 356 357 357 358 359 359 360 0 0 0 0 0 360 360 360 360 359 359 359 359 358 356 355 355 353 352 351 351 350 349 349 348 348 348 348 348 348 348 346 345 345 344 342 341 339 337 335 333 330 328 326 324 322 321 319 318 317 317 316 315 314 313 312 311
Height
10727 10728 10729 10731 10732 10733 10734 10734 10735 10735 10736 10737 10739 10740 10740 10739 10739 10740 10741 10741 10742 10743 10743 10743 10744 10744 10744 10743 10743 10743 10743 10743 10743 10743 10743 10742 10742 10742 10742 10741 10740 10740 10739 10738 10738 10737 10737 10736 10735 10734 10733 10732 10731 10730 10729 10728 10726 10725 10723 10722 10719 10716 10716 10717 10714 10714 10713 10712 10714 10712 10709 10709 10708 10705 10703 10702 10700 10700 10698 10695 10694 10692 10690 10689 10688 10688 10687 10686
10725 10726 10727 10728 10730 10731 10732 10732 10733 10733 10734 10735 10736 10737 10737 10737 10737 10737 10737 10737 10738 10739 10739 10740 10740 10740 10740 10739 10739 10739 10739 10739 10739 10739 10738 10738 10738 10737 10737 10736 10735 10735 10734 10733 10732 10732 10731 10730 10729 10728 10727 10726 10725 10724 10723 10722 10720 10718 10717 10715 10711 10710 10710 10708 10707 10708 10705 10704 10706 10704 10702 10701 10699 10696 10694 10694 10693 10692 10690 10687 10685 10683 10681 10679 10678 10677 10677 10676
10723 10724 10725 10726 10727 10728 10729 10730 10731 10732 10732 10733 10733 10733 10734 10734 10734 10734 10735 10735 10734 10734 10734 10735 10735 10735 10735 10735 10734 10734 10734 10734 10734 10734 10733 10733 10733 10732 10732 10731 10730 10729 10728 10728 10727 10726 10725 10724 10723 10722 10721 10720 10718 10717 10716 10714 10713 10711 10710 10707 10705 10703 10702 10702 10701 10700 10697 10696 10696 10696 10695 10692 10690 10688 10685 10684 10684 10684 10681 10677 10676 10674 10671 10669 10668 10666 10665 10665
10720 10722 10723 10723 10724 10725 10726 10727 10728 10729 10730 10730 10730 10730 10730 10730 10731 10731 10732 10732 10732 10731 10731 10731 10731 10730 10730 10729 10729 10729 10729 10729 10729 10728 10728 10728 10727 10726 10726 10725 10724 10723 10723 10722 10720 10720 10719 10718 10717 10715 10714 10713 10711 10710 10709 10707 10705 10705 10702 10698 10698 10695 10693 10696 10692 10690 10690 10687 10686 10687 10687 10684 10680 10679 10677 10674 10674 10675 10671 10667 10666 10664 10661 10659 10656 10654 10654 10654
10718 10719 10720 10721 10722 10723 10723 10724 10724 10725 10726 10727 10727 10727 10727 10727 10727 10727 10728 10728 10728 10728 10728 10728 10727 10727 10726 10725 10725 10724 10723 10723 10723 10723 10722 10722 10721 10720 10719 10719 10718 10717 10716 10715 10714 10713 10712 10711 10710 10708 10707 10706 10704 10702 10701 10699 10697 10697 10693 10690 10690 10687 10685 10688 10683 10680 10681 10678 10677 10678 10677 10674 10671 10669 10667 10664 10664 10665 10661 10658 10656 10653 10650 10648 10645 10643 10643 10642
10715 10716 10717 10718 10719 10720 10721 10721 10722 10722 10722 10723 10723 10724 10724 10724 10724 10724 10724 10724 10724 10724 10724 10723 10723 10723 10722 10721 10720 10720 10719 10718 10718 10718 10717 10716 10715 10714 10713 10713 10711 10711 10709 10708 10707 10706 10704 10703 10702 10701 10699 10698 10696 10695 10693 10691 10690 10689 10686 10682 10681 10678 10678 10678 10674 10671 10671 10669 10669 10668 10666 10664 10662 10660 10657 10654 10654 10655 10652 10648 10645 10642 10639 10637 10634 10632 10632 10630
10712 10713 10714 10714 10716 10717 10717 10718 10719 10719 10720 10720 10719 10720 10720 10720 10720 10720 10720 10719 10719 10719 10719 10718 10718 10718 10717 10716 10715 10715 10714 10713 10712 10712 10711 10710 10709 10708 10707 10706 10705 10704 10703 10702 10700 10699 10697 10696 10694 10693 10691 10690 10688 10687 10685 10683 10682 10680 10678 10675 10672 10670 10669 10668 10665 10662 10660 10659 10659 10657 10656 10654 10652 10650 10647 10646 10645 10644 10641 10637 10633 10631 10628 10625 10624 10622 10620 10617
10708 10709 10710 10711 10712 10712 10713 10714 10715 10715 10716 10716 10716 10716 10716 10715 10715 10715 10715 10715 10714 10714 10713 10713 10713 10712 10711 10710 10710 10709 10709 10707 10707 10706 10705 10704 10703 10702 10701 10700 10698 10697 10695 10694 10693 10691 10690 10688 10686 10685 10683 10681 10679 10678 10676 10674 10674 10670 10667 10667 10664 10661 10660 10657 10655 10653 10650 10649 10648 10647 10645 10644 10642 10640 10639 10638 10636 10633 10629 10626 10622 10619 10616 10614 10612 10610 10607 10604
10705 10706 10706 10707 10708 10708 10709 10710 10710 10711 10711 10712 10712 10712 10712 10712 10711 10711 10710 10710 10710 10709 10709 10708 10707 10706 10706 10705 10704 10703 10702 10701 10701 10700 10699 10698 10697 10695 10694 10693 10691 10689 10688 10686 10685 10683 10682 10680 10678 10676 10675 10672 10670 10669 10667 10665 10665 10662 10657 10656 10655 10652 10649 10647 10645 10642 10639 10638 10637 10636 10634 10633 10632 10631 10631 10629 10625 10621 10617 10614 10611 10607 10604 10601 10599 10596 10594 10591
10702 10702 10703 10703 10704 10704 10705 10706 10706 10707 10707 10707 10708 10708 10708 10708 10707 10707 10707 10706 10706 10705 10704 10703 10702 10701 10700 10699 10698 10697 10696 10695 10695 10694 10692 10691 10690 10688 10687 10685 10684 10682 10680 10678 10677 10675 10673 10672 10669 10668 10666 10663 10661 10659 10658 10656 10655 10653 10648 10646 10645 10642 10639 10637 10634 10631 10628 10627 10626 10624 10622 10621 10622 10622 10622 10618 10613 10609 10606 10602 10599 10595 10591 10588 10585 10582 10580 10576
10699 10699 10700 10700 10701 10701 10701 10702 10702 10703 10703 10703 10703 10703 10703 10703 10702 10702 10701 10701 10701 10700 10699 10698 10697 10696 10694 10693 10693 10691 10690 10690 10689 10687 10686 10685 10683 10681 10680 10678 10676 10674 10672 10670 10668 10666 10664 10662 10660 10658 10656 10654 10652 10649 10648 10646 10644 10642 10639 10636 10633 10631 10629 10626 10623 10619 10616 10616 10616 10612 10609 10609 10612 10612 10610 10606 10601 10598 10595 10591 10587 10583 10579 10575 10572 10568 10565 10562
10697 10697 10697 10697 10698 10698 10698 10698 10698 10699 10699 10699 10698 10698 10698 10697 10697 10696 10696 10695 10695 10694 10693 10692 10691 10690 10689 10687 10686 10685 10684 10683 10682 10680 10679 10677 10675 10674 10672 10670 10668 10666 10664 10662 10659 10657 10655 10653 10650 10648 10646 10644 10642 10639 10638 10636 10633 10631 10629 10626 10623 10620 10619 10617 10611 10606 10605 10605 10603 10599 10595 10598 10602 10599 10595 10592 10590 10587 10583 10579 10575 10571 10567 10563 10559 10555 10552 10549
10694 10694 10694 10694 10695 10695 10695 10695 10695 10695 10694 10694 10694 10693 10693 10692 10692 10691 10690 10690 10689 10688 10687 10686 10685 10684 10682 10681 10679 10677 10676 10675 10674 10673 10671 10669 10667 10665 10664 10662 10660 10658 10656 10653 10651 10648 10646 10643 10641 10639 10636 10634 10632 10630 10629 10627 10623 10621 10618 10614 10612 10610 10609 10607 10600 10595 10596 10593 10590 10585 10581 10589 10592 10584 10580 10579 10577 10575 10571 10567 10563 10559 10555 10551 10547 10543 10540 10536
10692 10692 10692 10692 10692 10692 10692 10691 10691 10691 10690 10690 10689 10689 10688 10688 10687 10686 10685 10684 10683 10682 10680 10679 10679 10677 10676 10674 10672 10671 10669 10668 10667 10665 10663 10661 10659 10657 10656 10654 10652 10649 10647 10645 10643 10640 10637 10635 10632 10629 10627 10625 10623 10620 10619 10617 10613 10610 10607 10603 10601 10598 10598 10598 10590 10585 10585 10581 10579 10574 10569 10579 10580 10571 10568 10566 10564 10561 10557 10554 10551 10547 10544 10539 10536 10532 10528 10525
10690 10690 10689 10689 10689 10689 10689 10688 10688 10687 10686 10686 10685 10685 10684 10683 10682 10681 10680 10679 10678 10676 10675 10674 10673 10671 10670 10668 10666 10664 10662 10661 10659 10658 10656 10654 10652 10649 10648 10646 10644 10641 10639 10636 10634 10631 10629 10626 10624 10621 10618 10616 10614 10612 10610 10607 10603 10599 10596 10594 10592 10587 10585 10587 10583 10576 10574 10570 10567 10562 10559 10566 10566 10560 10557 10554 10551 10548 10544 10541 10538 10535 10532 10528 10524 10520 10517 10513
10688 10688 10687 10687 10687 10686 10686 10685 10685 10684 10683 10682 10681 10681 10680 10679 10677 10676 10675 10674 10672 10671 10669 10668 10667 10665 10664 10661 10660 10658 10656 10654 10652 10650 10648 10646 10644 10642 10640 10638 10636 10634 10631 10628 10626 10623 10621 10618 10616 10613 10610 10608 10606 10603 10600 10597 10594 10591 10587 10584 10581 10578 10574 10574 10573 10568 10563 10559 10556 10551 10550 10553 10552 10548 10545 10541 10538 10535 10531 10529 10525 10522 10519 10515 10512 10508 10504 10500
10686 10685 10685 10685 10684 10684 10683 10683 10682 10681 10680 10679 10678 10677 10676 10674 10673 10672 10671 10669 10667 10666 10664 10663 10661 10660 10658 10656 10654 10652 10650 10648 10646 10643 10641 10639 10637 10635 10633 10630 10628 10626 10624 10621 10618 10616 10613 10610 10608 10605 10602 10599 10596 10593 10590 10587 10584 10581 10579 10574 10568 10568 10563 10561 10564 10559 10551 10548 10545 10542 10541 10541 10539 10535 10531 10528 10526 10522 10518 10515 10512 10509 10505 10502 10498 10494 10490 10487
10684 10683 10683 10682 10682 10682 10681 10680 10679 10678 10677 10676 10675 10673 10672 10671 10669 10668 10666 10664 10663 10661 10659 10657 10656 10654 10652 10650 10648 10646 10644 10641 10639 10637 10635 10633 10631 10628 10626 10623 10621 10618 10616 10613 10610 10607 10605 10601 10598 10596 10593 10590 10587 10583 10580 10578 10574 10570 10569 10566 10559 10556 10552 10549 10551 10547 10540 10537 10534 10532 10530 10529 10526 10522 10518 10515 10512 10509 10505 10502 10498 10495 10491 10488 10484 10480 10476 10472
10682 10681 10681 10680 10680 10679 10678 10677 10676 10675 10674 10672 10671 10670 10668 10667 10665 10664 10662 10660 10658 10656 10654 10652 10650 10649 10647 10644 10642 10640 10637 10635 10633 10630 10629 10626 10624 10621 10618 10616 10613 10610 10608 10605 10602 10598 10596 10593 10589 10586 10584 10581 10578 10574 10571 10568 10564 10560 10557 10555 10551 10546 10543 10541 10538 10532 10529 10525 10523 10521 10518 10516 10513 10509 10506 10502 10499 10496 10492 10488 10484 10481 10477 10473 10470 10466 10463 10459
10680 10679 10678 10678 10677 10676 10675 10674 10673 10671 10670 10669 10667 10666 10664 10662 10661 10659 10657 10655 10653 10651 10649 10647 10645 10642 10640 10638 10636 10634 10631 10629 10626 10624 10622 10619 10616 10614 10611 10609 10606 10602 10599 10597 10594 10590 10587 10585 10581 10577 10574 10572 10569 10565 10562 10558 10555 10551 10546 10544 10540 10535 10533 10532 10527 10521 10517 10513 10511 10510 10506 10503 10500 10497 10494 10490 10487 10484 10479 10475 10471 10468 10464 10460 10457 10453 10450 10447
10678 10677 10676 10675 10674 10673 10672 10671 10669 10668 10667 10665 10663 10662 10660 10658 10656 10654 10652 10650 10648 10646 10644 10642 10639 10637 10634 10632 10630 10628 10625 10622 10620 10617 10615 10612 10609 10607 10604 10601 10598 10595 10591 10589 10586 10582 10579 10577 10572 10569 10565 10562 10559 10555 10552 10548 10544 10540 10537 10533 10529 10525 10523 10520 10515 10511 10506 10501 10501 10499 10494 10491 10488 10485 10482 10479 10476 10471 10467 10463 10459 10456 10453 10449 10445 10442 10438 10436
10676 10675 10674 10673 10672 10670 10669 10668 10666 10665 10663 10661 10659 10657 10655 10653 10652 10649 10647 10645 10643 10641 10639 10636 10634 10631 10629 10626 10623 10621 10618 10616 10613 10610 10607 10605 10602 10599 10596 10593 10590 10587 10584 10580 10578 10574 10571 10568 10563 10560 10556 10552 10549 10545 10542 10538 10534 10530 10526 10522 10519 10516 10512 10509 10506 10500 10494 10492 10492 10488 10483 10480 10478 10475 10472 10468 10464 10460 10456 10452 10449 10445 10441 10438 10434 10431 10428 10425
10675 10673 10672 10671 10669 10668 10666 10665 10663 10661 10659 10657 10655 10653 10651 10649 10647 10645 10642 10640 10637 10635 10633 10630 10627 10625 10622 10620 10617 10614 10612 10609 10606 10603 10600 10597 10594 10591 10588 10585 10582 10579 10576 10572 10569 10565 10562 10558 10554 10550 10547 10543 10539 10535 10532 10528 10524 10521 10517 10512 10508 10507 10502 10498 10497 10491 10484 10483 10482 10477 10472 10470 10470 10466 10461 10456 10452 10448 10445 10441 10437 10434 10430 10427 10423 10420 10417 10414
10673 10672 10670 10668 10667 10665 10664 10662 10660 10658 10656 10654 10651 10649 10647 10644 10642 10640 10637 10634 10632 10629 10627 10624 10621 10618 10616 10614 10611 10608 10605 10601 10599 10595 10592 10590 10587 10583 10580 10576 10573 10570 10567 10563 10560 10556 10552 10549 10545 10541 10537 10533 10529 10526 10522 10518 10514 10511 10508 10502 10498 10497 10493 10488 10486 10482 10476 10475 10472 10465 10460 10462 10462 10455 10449 10446 10441 10437 10434 10429 10426 10422 10419 10415 10412 10409 10406 10404
10671 10670 10668 10666 10664 10662 10661 10659 10656 10654 10652 10650 10647 10645 10642 10640 10637 10634 10631 10629 10626 10624 10621 10618 10615 10612 10610 10607 10604 10602 10598 10594 10591 10588 10585 10582 10579 10575 10571 10568 10565 10561 10558 10554 10550 10547 10543 10539 10535 10531 10527 10524 10520 10516 10513 10509 10504 10501 10499 10494 10488 10485 10483 10478 10474 10470 10467 10467 10464 10454 10447 10450 10452 10446 10440 10436 10430 10426 10422 10418 10415 10410 10407 10404 10401 10399 10396 10393
10669 10667 10665 10663 10661 10659 10657 10655 10653 10650 10648 10645 10643 10640 10637 10635 10632 10629 10626 10623 10621 10618 10615 10612 10609 10606 10603 10600 10597 10594 10591 10586 10583 10580 10577 10574 10570 10567 10563 10559 10556 10552 10548 10545 10541 10537 10534 10530 10526 10522 10518 10515 10511 10507 10504 10500 10496 10491 10488 10485 10479 10475 10472 10468 10464 10458 10454 10455 10455 10446 10436 10433 10437 10440 10436 10426 10418 10414 10410 10406 10402 10398 10395 10393 10390 10387 10385 10381
10666 10664 10662 10660 10658 10656 10653 10651 10648 10646 10643 10641 10638 10635 10632 10629 10627 10624 10621 10618 10615 10611 10609 10606 10603 10599 10596 10593 10589 10586 10583 10579 10575 10571 10568 10566 10562 10559 10555 10551 10547 10543 10539 10535 10531 10527 10524 10520 10517 10513 10509 10505 10502 10498 10494 10490 10486 10482 10478 10475 10470 10466 10462 10458 10453 10448 10443 10442 10442 10438 10428 10418 10419 10429 10430 10418 10408 10402 10397 10393 10389 10387 10385 10382 10379 10376 10373 10370
10663 10660 10658 10656 10654 10652 10650 10647 10644 10642 10639 10636 10633 10630 10627 10624 10621 10618 10615 10612 10608 10605 10602 10600 10596 10592 10588 10585 10581 10578 10575 10571 10567 10563 10560 10558 10554 10551 10546 10542 10538 10534 10530 10526 10521 10518 10515 10512 10508 10504 10500 10496 10492 10488 10484 10480 10476 10472 10468 10464 10460 10456 10452 10447 10443 10438 10433 10431 10429 10425 10419 10409 10405 10414 10417 10410 10400 10391 10386 10382 10378 10376 10373 10370 10368 10364 10361 10357
10659 10657 10655 10653 10650 10648 10645 10643 10640 10637 10634 10631 10628 10625 10621 10618 10615 10612 10609 10605 10602 10599 10596 10592 10589 10585 10581 10577 10574 10570 10567 10564 10560 10556 10552 10549 10545 10542 10538 10533 10530 10525 10521 10517 10513 10509 10506 10503 10499 10494 10490 10486 10482 10478 10473 10470 10466 10462 10458 10454 10450 10445 10441 10437 10433 10428 10422 10420 10418 10411 10407 10400 10394 10400 10405 10397 10387 10381 10377 10373 10368 10365 10362 10358 10355 10351 10348 10345
10656 10654 10651 10649 10646 10643 10640 10638 10635 10632 10629 10626 10623 10619 10616 10612 10609 10606 10602 10598 10595 10592 10589 10585 10582 10578 10574 10571 10567 10563 10560 10556 10553 10549 10545 10541 10536 10533 10529 10524 10521 10517 10512 10508 10504 10500 10497 10494 10489 10485 10481 10476 10472 10468 10464 10460 10456 10452 10448 10444 10440 10436 10432 10428 10423 10417 10411 10409 10409 10401 10395 10389 10382 10388 10393 10383 10373 10370 10368 10363 10357 10353 10350 10346 10343 10339 10336 10333
10652 10650 10647 10644 10642 10639 10636 10633 10630 10627 10624 10620 10617 10614 10610 10607 10603 10599 10595 10592 10589 10586 10582 10579 10575 10571 10568 10564 10560 10557 10553 10549 10546 10542 10537 10534 10529 10525 10521 10517 10512 10508 10504 10499 10496 10492 10489 10485 10481 10476 10472 10467 10464 10460 10455 10451 10446 10443 10439 10434 10431 10426 10422 10420 10413 10407 10401 10397 10398 10394 10385 10378 10372 10375 10379 10371 10362 10359 10356 10353 10347 10342 10338 10334 10331 10327 10324 10320
10649 10646 10643 10640 10637 10634 10631 10628 10625 10622 10618 10615 10611 10608 10604 10601 10597 10594 10589 10586 10582 10579 10576 10572 10568 10564 10561 10557 10553 10550 10546 10542 10538 10534 10530 10526 10522 10518 10513 10509 10505 10499 10495 10489 10485 10482 10479 10475 10471 10467 10463 10459 10455 10451 10446 10442 10437 10433 10429 10424 10421 10416 10412 10410 10403 10398 10393 10386 10386 10385 10375 10367 10363 10363 10363 10359 10353 10347 10343 10341 10336 10331 10327 10322 10318 10315 10311 10307
10644 10641 10639 10636 10632 10629 10626 10623 10620 10616 10613 10609 10606 10602 10599 10595 10591 10588 10584 10580 10577 10573 10569 10566 10562 10558 10554 10550 10546 10542 10538 10534 10530 10526 10522 10519 10515 10510 10506 10502 10498 10493 10488 10482 10476 10473 10469 10465 10461 10458 10454 10450 10446 10442 10437 10433 10428 10423 10419 10414 10410 10405 10402 10399 10393 10387 10383 10377 10375 10374 10366 10357 10353 10351 10348 10344 10341 10336 10331 10328 10324 10320 10315 10310 10306 10301 10297 10293
10640 10637 10634 10631 10628 10625 10621 10618 10615 10611 10608 10604 10600 10597 10593 10590 10586 10583 10579 10575 10571 10567 10564 10560 10555 10552 10548 10544 10539 10535 10531 10528 10524 10519 10516 10512 10508 10503 10499 10495 10491 10486 10481 10476 10471 10466 10463 10458 10453 10449 10446 10441 10437 10432 10427 10424 10419 10414 10409 10404 10398 10393 10389 10388 10383 10377 10373 10368 10364 10362 10356 10347 10342 10340 10336 10330 10326 10322 10318 10314 10310 10307 10302 10297 10293 10288 10283 10279
10636 10633 10630 10626 10623 10620 10616 10613 10609 10606 10603 10599 10595 10592 10588 10584 10580 10577 10573 10569 10565 10561 10558 10554 10550 10546 10542 10538 10533 10529 10525 10522 10518 10513 10509 10506 10501 10497 10492 10488 10483 10479 10474 10469 10464 10460 10456 10451 10446 10441 10437 10433 10428 10423 10418 10413 10409 10404 10399 10393 10388 10382 10377 10374 10370 10365 10361 10358 10354 10349 10344 10338 10332 10329 10324 10317 10313 10309 10304 10301 10297 10292 10288 10283 10279 10274 10270 10266
10631 10628 10625 10622 10619 10615 10611 10608 10604 10601 10598 10594 10590 10586 10583 10579 10575 10571 10567 10564 10560 10556 10552 10549 10545 10541 10537 10533 10529 10524 10520 10517 10513 10508 10504 10499 10495 10491 10486 10481 10477 10472 10466 10461 10456 10451 10447 10442 10437 10432 10428 10424 10419 10414 10409 10403 10397 10393 10388 10383 10377 10372 10366 10361 10358 10353 10348 10344 10341 10336 10331 10326 10322 10318 10312 10305 10300 10297 10292 10287 10283 10277 10273 10268 10264 10259 10255 10251
10627 10624 10621 10617 10614 10610 10607 10603 10600 10596 10593 10589 10585 10581 10578 10574 10570 10566 10562 10559 10555 10551 10548 10544 10540 10536 10532 10529 10524 10520 10516 10512 10508 10503 10499 10494 10489 10484 10479 10474 10470 10465 10459 10454 10448 10443 10438 10433 10427 10423 10418 10414 10409 10404 10399 10393 10388 10383 10377 10371 10367 10362 10355 10349 10346 10343 10337 10332 10327 10322 10317 10313 10311 10305 10299 10292 10287 10283 10279 10273 10269 10264 10259 10254 10248 10244 10239 10234
10623 10620 10617 10613 10609 10606 10602 10599 10595 10592 10588 10585 10581 10577 10573 10570 10566 10562 10558 10555 10551 10547 10543 10540 10536 10532 10528 10524 10520 10515 10511 10507 10502 10498 10493 10488 10483 10478 10472 10467 10461 10456 10451 10446 10440 10435 10430 10425 10419 10414 10409 10404 10399 10394 10389 10383 10378 10373 10368 10362 10357 10352 10346 10340 10335 10330 10327 10322 10317 10312 10304 10300 10298 10292 10285 10280 10275 10269 10264 10259 10255 10249 10244 10239 10233 10228 10223 10218
10620 10616 10613 10609 10606 10603 10599 10595 10591 10588 10584 10580 10577 10573 10570 10566 10563 10559 10555 10551 10548 10544 10540 10536 10532 10528 10524 10520 10515 10511 10506 10501 10496 10491 10486 10481 10476 10471 10465 10459 10454 10448 10443 10438 10433 10427 10422 10417 10411 10406 10401 10396 10390 10385 10380 10374 10369 10363 10358 10352 10346 10341 10336 10331 10325 10319 10314 10310 10308 10304 10297 10290 10286 10280 10272 10268 10262 10256 10251 10246 10241 10236 10230 10224 10219 10213 10208 10203
10616 10613 10609 10606 10603 10599 10595 10591 10588 10584 10581 10577 10574 10570 10567 10563 10560 10556 10552 10549 10545 10541 10537 10533 10529 10525 10521 10516 10512 10507 10502 10497 10491 10486 10480 10475 10469 10463 10458 10452 10446 10441 10435 10430 10425 10420 10414 10409 10404 10398 10393 10388 10382 10376 10370 10365 10360 10354 10349 10343 10336 10331 10325 10320 10315 10308 10302 10297 10293 10291 10287 10282 10275 10266 10260 10256 10250 10244 10239 10233 10228 10223 10217 10210 10205 10200 10194 10189
10613 10609 10606 10603 10599 10595 10592 10588 10585 10581 10578 10574 10571 10568 10564 10561 10557 10553 10550 10546 10542 10538 10535 10531 10526 10522 10518 10513 10508 10503 10497 10492 10486 10480 10474 10468 10462 10456 10451 10445 10439 10434 10428 10423 10418 10413 10407 10402 10397 10391 10386 10381 10375 10369 10363 10357 10352 10347 10342 10336 10330 10324 10317 10311 10306 10299 10292 10286 10280 10276 10274 10272 10265 10253 10247 10243 10238 10232 10227 10221 10215 10210 10205 10199 10192 10187 10181 10176
10609 10606 10603 10599 10596 10593 10589 10586 10583 10579 10575 10572 10568 10565 10561 10558 10554 10551 10547 10544 10540 10536 10532 10528 10524 10519 10514 10509 10504 10498 10492 10486 10480 10474 10469 10463 10457 10451 10445 10439 10434 10428 10422 10417 10411 10406 10401 10395 10390 10385 10379 10373 10368 10362 10356 10349 10343 10338 10332 10326 10321 10315 10309 10302 10296 10290 10283 10276 10270 10263 10259 10259 10254 10243 10235 10230 10225 10220 10214 10208 10202 10197 10192 10187 10180 10174 10169 10163
10606 10603 10600 10597 10593 10590 10587 10584 10580 10576 10573 10569 10566 10563 10559 10556 10552 10549 10545 10542 10538 10534 10530 10525 10520 10515 10510 10504 10499 10493 10487 10481 10475 10469 10463 10457 10452 10446 10440 10434 10429 10423 10418 10412 10407 10401 10395 10390 10385 10379 10372 10366 10360 10354 10348 10342 10335 10330 10324 10318 10311 10305 10299 10292 10284 10279 10273 10266 10259 10252 10247 10244 10240 10232 10224 10218 10213 10207 10202 10196 10190 10183 10178 10173 10167 10161 10156 10150
10604 10601 10598 10595 10592 10588 10585 10581 10578 10574 10571 10567 10564 10560 10557 10554 10550 10547 10543 10540 10536 10531 10527 10522 10517 10511 10506 10500 10494 10488 10482 10476 10470 10465 10459 10453 10448 10442 10436 10431 10425 10419 10414 10408 10402 10396 10391 10385 10379 10374 10368 10362 10357 10351 10344 10338 10331 10324 10318 10311 10305 10298 10291 10284 10277 10270 10264 10257 10249 10243 10237 10231 10228 10222 10213 10207 10202 10196 10189 10184 10179 10172 10166 10160 10154 10148 10143 10137
10603 10600 10597 10593 10590 10586 10583 10579 10576 10572 10569 10566 10562 10559 10555 10552 10549 10545 10541 10537 10533 10529 10524 10519 10513 10508 10502 10496 10491 10485 10479 10473 10468 10462 10456 10450 10444 10438 10432 10426 10420 10414 10409 10403 10397 10391 10385 10380 10374 10369 10364 10358 10353 10346 10340 10333 10325 10318 10311 10303 10297 10291 10284 10277 10269 10262 10256 10249 10241 10235 10228 10221 10216 10212 10205 10196 10190 10184 10177 10172 10167 10161 10155 10148 10142 10137 10131 10125
10601 10598 10595 10591 10588 10584 10581 10578 10574 10571 10567 10564 10561 10557 10554 10550 10547 10543 10539 10535 10531 10526 10521 10515 10510 10505 10500 10495 10490 10484 10478 10471 10465 10459 10453 10446 10440 10434 10428 10422 10416 10410 10404 10399 10393 10387 10381 10376 10371 10365 10359 10353 10346 10339 10333 10326 10319 10311 10304 10296 10289 10283 10277 10269 10261 10253 10247 10240 10231 10224 10219 10212 10204 10200 10195 10188 10181 10174 10167 10161 10156 10150 10144 10137 10132 10126 10119 10113
10599 10596 10593 10590 10587 10583 10580 10577 10573 10569 10566 10563 10559 10556 10552 10549 10545 10541 10537 10533 10528 10523 10518 10513 10509 10504 10500 10494 10489 10482 10476 10470 10464 10457 10451 10444 10438 10432 10426 10420 10414 10408 10402 10396 10390 10385 10379 10374 10368 10361 10355 10348 10341 10335 10328 10321 10314 10306 10298 10290 10282 10277 10271 10263 10254 10245 10237 10232 10224 10216 10209 10204 10196 10190 10185 10178 10172 10165 10158 10152 10147 10140 10134 10127 10121 10115 10108 10102
10598 10595 10592 10589 10585 10582 10579 10575 10572 10568 10565 10561 10557 10554 10550 10547 10543 10539 10535 10531 10526 10521 10517 10513 10508 10504 10499 10493 10487 10481 10475 10469 10463 10456 10450 10443 10437 10431 10424 10418 10412 10406 10400 10394 10388 10382 10377 10371 10364 10357 10351 10345 10338 10331 10324 10317 10310 10302 10293 10285 10276 10270 10266 10259 10249 10240 10230 10223 10217 10210 10201 10194 10187 10181 10175 10168 10162 10155 10148 10142 10136 10129 10123 10117 10110 10103 10097 10091
10597 10594 10591 10588 10584 10581 10577 10574 10570 10566 10563 10559 10556 10553 10549 10545 10541 10537 10533 10529 10524 10520 10516 10512 10508 10502 10497 10491 10485 10479 10473 10467 10461 10454 10448 10442 10435 10429 10423 10416 10410 10404 10398 10392 10385 10379 10373 10367 10361 10355 10348 10341 10334 10328 10321 10314 10307 10298 10290 10281 10271 10263 10259 10254 10246 10237 10228 10218 10210 10203 10196 10188 10180 10171 10164 10157 10151 10145 10139 10132 10125 10119 10113 10106 10098 10091 10085 10078
10596 10593 10590 10587 10583 10579 10576 10572 10569 10565 10561 10558 10555 10552 10548 10544 10540 10535 10531 10527 10523 10520 10516 10511 10506 10501 10495 10489 10483 10478 10471 10465 10459 10452 10446 10439 10433 10427 10420 10414 10407 10401 10395 10388 10382 10376 10369 10363 10357 10351 10345 10338 10331 10324 10317 10310 10302 10294 10286 10277 10267 10257 10251 10248 10240 10232 10224 10215 10205 10197 10190 10182 10175 10165 10157 10149 10143 10137 10130 10123 10116 10110 10103 10096 10088 10081 10074 10067
10595 10592 10589 10585 10582 10578 10575 10571 10567 10564 10561 10557 10554 10551 10546 10542 10538 10534 10530 10527 10523 10519 10514 10509 10504 10499 10493 10487 10482 10476 10469 10463 10456 10450 10443 10437 10431 10424 10418 10411 10405 10398 10391 10385 10378 10372 10366 10359 10352 10346 10341 10335 10328 10321 10314 10306 10298 10291 10283 10273 10263 10252 10243 10239 10232 10224 10216 10209 10200 10193 10184 10176 10169 10161 10152 10144 10136 10130 10122 10115 10109 10102 10095 10088 10081 10073 10066 10058
10594 10590 10587 10584 10580 10577 10574 10570 10567 10563 10560 10557 10553 10549 10545 10541 10537 10534 10530 10526 10521 10517 10512 10507 10502 10496 10491 10486 10480 10474 10467 10461 10454 10448 10441 10435 10428 10422 10416 10409 10403 10396 10389 10383 10376 10370 10363 10357 10350 10343 10336 10330 10323 10317 10310 10302 10295 10287 10279 10269 10260 10249 10238 10230 10224 10216 10209 10202 10194 10186 10178 10170 10162 10154 10147 10138 10130 10123 10116 10108 10103 10097 10089 10082 10074 10067 10059 10051